x

St. Joseph, Mi (sjom4) Weather Station

5:50am - Thu 28th Aug 2014 All times are CDT. -5 hours from GMT.

  • Wind
  • Air Temp 59°f
  • Sea Pressure 1021mb
  • St. Joseph, Mi
  • St. Joseph, Mi

More Historic Weather Station data

Upgrade to MSW Pro to gain access to the past 30 days of data for over 8000 Wavebouys and Weather Stations around the globe.

Join Pro

Comparision Forecast

View Surf forecast
   
Thu 08/28 5:50am  -  8 mph 1021mb 59f
5:40am  -  3 mph 1021.3mb 59f
5:30am 2 7 mph 1020.7mb 60f
5:20am 3 8 mph 1021.3mb 60f
5:10am 2 8 mph 1021.3mb 60f
5:00am 2 8 mph 1021.3mb 60f
4:50am 2 8 mph 1021.3mb 60f
4:40am 3 7 mph 1020.7mb 60f
4:30am 2 8 mph 1021.3mb 60f
4:20am 3 6 mph 1021.7mb 60f
4:10am 3 5 mph 1021mb 60f
4:00am 3 7 mph 1020.7mb 61f
3:50am 2 6 mph 1021.3mb 61f
3:40am 2 6 mph 1021.3mb 61f
3:30am  -  6 mph 1020.7mb 61f
3:20am 2 5 mph 1021.3mb 61f
3:10am  -  5 mph 1021.7mb 61f
3:00am  -  3 mph 1021mb 61f
2:50am 1 5 mph 1021.3mb 62f
2:49am  -  6 mph 1021mb 62f
2:40am  -  5 mph 1021.7mb 62f
2:30am 1 6 mph 1020.7mb 62f
2:20am 1 6 mph 1021.3mb 62f
2:10am  -  3 mph 1021.3mb 62f
2:00am 2 6 mph 1020.7mb 62f
1:50am 1 6 mph 1021.3mb 63f
1:49am 2 7 mph 1020.7mb 63f
1:40am 2 6 mph 1020.7mb 63f
1:30am 1 7 mph 1020.7mb 63f
1:20am 2 6 mph 1021mb 63f
1:10am 2 6 mph 1020.3mb 63f
1:00am 1 6 mph 1021mb 63f
12:50am 3 7 mph 1021.3mb 63f
12:48am 3 9 mph 1020.3mb 63f
12:40am 1 7 mph 1020.3mb 63f
12:30am 2 7 mph 1020.7mb 64f
12:20am 2 6 mph 1021.3mb 64f
12:10am 2 9 mph 1020.3mb 64f
12:00am 1 8 mph 1020.7mb 64f
Wed 08/27 11:50pm 3 8 mph 1021mb 65f
11:48pm 6 8 mph 1020.3mb 65f
11:40pm 5 8 mph 1020.3mb 64f
11:30pm 3 6 mph 1021mb 64f
11:20pm 1 7 mph 1021mb 65f
11:10pm  -  7 mph 1020.3mb 65f
11:00pm 1 6 mph 1021.3mb 64f
10:50pm 1 5 mph 1020.7mb 64f
10:48pm  -  5 mph 1020.7mb 65f
10:40pm 2 5 mph 1021mb 64f
10:30pm  -  3 mph 1021.3mb 64f
10:20pm  -  3 mph 1021mb 64f
10:10pm  -  5 mph 1021.7mb 65f
10:00pm  -  3 mph 1020.7mb 65f
9:50pm  -  5 mph 1021.3mb 65f
9:47pm  -  5 mph 1021mb 65f
9:40pm  -  3 mph 1020.7mb 65f
9:30pm  -  1 mph 1021.3mb 65f
9:20pm  -  2 mph 1020.3mb 66f
9:10pm  -  3 mph 1021mb 67f
9:00pm  -  3 mph 1020.7mb 67f
8:50pm 1 6 mph 1020.7mb 67f
8:47pm 1 13 mph 1020.3mb 67f
8:40pm 1 6 mph 1020.3mb 68f
8:30pm 3 9 mph 1020.7mb 68f
8:20pm 1 10 mph 1020mb 68f
8:10pm 2 11 mph 1020.3mb 68f
8:00pm 7 11 mph 1019.6mb 68f
7:50pm 6 14 mph 1020mb 68f
7:46pm 7 17 mph 1020.3mb 68f
7:40pm 9 15 mph 1020mb 69f
7:30pm 8 14 mph 1020mb 69f
7:20pm 10 16 mph 1020.3mb 69f
7:10pm 11 16 mph 1019.6mb 69f
7:00pm 10 17 mph 1020.7mb 69f
6:50pm 8 16 mph 1020mb 70f
6:46pm 10 17 mph 1020.3mb 70f
6:40pm 10 17 mph 1020.3mb 70f
6:30pm 8 15 mph 1020.7mb 70f
6:20pm 13 17 mph 1020mb 70f
6:10pm 10 15 mph 1020.7mb 70f
6:00pm 13 16 mph 1021mb 70f
5:50pm 11 16 mph 1020.3mb 71f
5:46pm 13 17 mph 1020.7mb 71f
5:40pm 10 16 mph 1020.7mb 71f
5:30pm 14 17 mph 1021.3mb 71f
5:20pm 11 15 mph 1021mb 71f
5:10pm 10 14 mph 1020.3mb 71f
5:00pm 11 15 mph 1021mb 71f
4:50pm 11 15 mph 1021.3mb 72f
4:45pm 11 18 mph 1020.7mb 71f
4:40pm 10 14 mph 1021.3mb 71f
4:30pm 11 14 mph 1021mb 71f
4:20pm 11 15 mph 1021mb 71f
4:10pm 13 17 mph 1021mb 72f
4:00pm 13 18 mph 1021.7mb 71f
3:50pm 13 18 mph 1021.7mb 72f
3:45pm 13 18 mph 1020.7mb 72f
3:40pm 16 18 mph 1021.3mb 72f
3:30pm 13 16 mph 1021mb 72f
3:20pm 11 16 mph 1021mb 72f
3:10pm 11 15 mph 1021mb 73f
3:00pm 13 15 mph 1021.3mb 73f
2:50pm 13 15 mph 1021.7mb 73f
2:44pm 11 15 mph 1021mb 72f
2:40pm 13 15 mph 1021.7mb 72f
2:30pm 10 14 mph 1021.3mb 73f
2:20pm 10 14 mph 1021mb 73f
2:10pm 10 14 mph 1021mb 72f
2:00pm 10 14 mph 1021.3mb 72f
1:50pm 11 15 mph 1022mb 73f
1:44pm 11 15 mph 1021.7mb 72f
1:40pm 13 15 mph 1022mb 72f
1:30pm 11 14 mph 1021.7mb 72f
1:20pm 10 13 mph 1021.3mb 72f
1:10pm 9 14 mph 1021.3mb 72f
1:00pm 10 15 mph 1021.7mb 73f
12:50pm 10 13 mph 1022mb 73f
12:44pm 10 14 mph 1021.7mb 72f
12:40pm 9 14 mph 1021.7mb 72f
12:30pm 10 14 mph 1021.3mb 72f
12:20pm 13 14 mph 1021mb 72f
12:10pm 10 13 mph 1021.7mb 72f
12:00pm 9 14 mph 1022mb 72f
11:50am 9 11 mph 1021.7mb 72f
11:43am 9 11 mph 1021.7mb 72f
11:40am 10 11 mph 1021.3mb 72f
11:30am 6 9 mph 1021mb 72f
11:20am 5 7 mph 1021mb 72f
11:10am 6 9 mph 1021.7mb 72f
11:00am 7 9 mph 1021.7mb 72f
10:50am 7 10 mph 1021.3mb 71f
10:43am 7 10 mph 1021mb 71f
10:40am 6 9 mph 1021mb 71f
10:30am 7 9 mph 1022mb 71f
10:20am 6 9 mph 1021.7mb 72f
10:10am 5 8 mph 1021mb 71f
10:00am 3 9 mph 1022mb 71f
9:50am 6 9 mph 1021.7mb 71f
9:42am 6 11 mph 1021mb 71f
9:40am 5 11 mph 1021.3mb 71f
9:30am 2 7 mph 1021.7mb 71f
9:20am 3 7 mph 1021mb 70f
9:10am 1 5 mph 1021.7mb 69f
9:00am  -  2 mph 1021mb 69f
8:50am  -  2 mph 1021.7mb 68f
8:42am  -  5 mph 1021mb 67f
8:40am  -  2 mph 1021mb 67f
8:30am  -  mph 1021.7mb 68f
8:20am  -  mph 1021mb 67f
8:10am  -  mph 1021.7mb 67f
8:00am  -  5 mph 1021.3mb 66f
7:50am  -  2 mph 1021.3mb 66f
7:42am  -  5 mph 1021mb 66f
7:40am  -  3 mph 1021.7mb 66f
7:30am  -  5 mph 1021.3mb 66f
7:20am  -  2 mph 1021mb 65f
7:10am  -  5 mph 1021.7mb 65f
7:00am 1 5 mph 1020.7mb 65f
6:50am  -  3 mph 1021mb 65f
6:41am  -  3 mph 1021.3mb 65f
6:40am  -  mph 1021.3mb 65f
6:30am  -  3 mph 1020.3mb 64f
6:20am  -  1 mph 1021.3mb 64f
6:10am  -  mph 1020.7mb 64f
6:00am  -  1 mph 1020.7mb 64f
5:50am  -  1 mph 1021mb 64f
5:41am  -  3 mph 1020.7mb 64f
5:40am  -  1 mph 1020mb 64f
5:30am  -  3 mph 1021mb 64f
5:20am  -  mph 1020.3mb 64f
5:10am  -  mph 1020.7mb 64f
5:00am  -  mph 1020.7mb 64f
4:50am  -  mph 1020mb 64f
4:40am  -  mph 1020mb 64f
4:30am  -  mph 1020.7mb 64f
4:20am  -  mph 1020mb 64f
4:10am  -  mph 1020mb 64f
4:00am  -  mph 1020.7mb 64f
3:50am  -  mph 1020mb 64f
3:40am  -  1 mph 1020.7mb 64f
3:30am  -  1 mph 1020.7mb 64f
3:20am  -  1 mph 1020mb 64f
3:10am  -  mph 1019.6mb 64f
3:00am  -  mph 1020.7mb 64f
2:50am  -  mph 1020.3mb 64f
2:40am  -  mph 1020.7mb 64f
2:39am  -  1 mph 1020mb 64f
2:30am  -  mph 1020.7mb 64f
2:20am  -  mph 1020mb 64f
2:10am  -  mph 1020.3mb 64f
2:00am  -  mph 1020.3mb 64f
1:50am  -  1 mph 1020mb 64f
1:40am  -  3 mph 1020.7mb 65f
1:39am  -  6 mph 1020.3mb 65f
1:30am  -  6 mph 1020.3mb 65f
1:20am  -  3 mph 1020.3mb 65f
1:10am  -  3 mph 1020.7mb 66f
1:00am  -  5 mph 1020mb 66f
12:50am  -  3 mph 1021mb 66f
12:40am  -  5 mph 1020mb 65f
12:39am  -  5 mph 1020.7mb 65f
12:30am  -  2 mph 1020.7mb 66f
12:20am  -  3 mph 1020.3mb 66f
12:10am  -  mph 1020.3mb 66f
12:00am  -  mph 1020.3mb 66f
Tue 08/26 11:50pm  -  mph 1020.3mb 66f
11:40pm  -  3 mph 1020.7mb 67f
11:38pm  -  3 mph 1020.7mb 67f
11:30pm  -  2 mph 1020mb 67f
11:20pm  -  3 mph 1020.3mb 67f
11:10pm  -  3 mph 1019.6mb 67f
11:00pm  -  2 mph 1020mb 67f
10:50pm  -  2 mph 1019.6mb 67f
10:40pm  -  1 mph 1019.6mb 66f
10:38pm  -  3 mph 1020mb 66f
10:30pm  -  mph 1019.6mb 67f
10:20pm  -  mph 1019.6mb 67f
10:10pm  -  mph 1020.3mb 67f
10:00pm  -  mph 1019.6mb 67f
9:50pm  -  3 mph 1020.3mb 68f
9:40pm  -  3 mph 1019.3mb 68f
9:37pm  -  5 mph 1020mb 68f
9:30pm  -  2 mph 1020mb 68f
9:20pm  -  5 mph 1019.6mb 68f
9:10pm  -  5 mph 1020mb 68f
9:00pm  -  5 mph 1019.3mb 68f
8:50pm  -  5 mph 1019.6mb 68f
8:40pm  -  3 mph 1019mb 68f
8:37pm  -  8 mph 1019.3mb 68f
8:30pm  -  3 mph 1019.6mb 68f
8:20pm  -  mph 1018.6mb 69f
8:10pm  -  3 mph 1019.3mb 69f
8:00pm 1 6 mph 1019mb 69f
7:50pm 3 8 mph 1019mb 70f
7:40pm 3 8 mph 1019.3mb 70f
7:37pm 6 10 mph 1019mb 70f
7:30pm 3 7 mph 1019mb 70f
7:20pm 3 8 mph 1019.3mb 70f
7:10pm 3 9 mph 1019.3mb 70f
7:00pm 7 10 mph 1019mb 70f
6:50pm 8 10 mph 1019mb 70f
6:40pm 6 9 mph 1019.3mb 70f
6:36pm 6 14 mph 1019.6mb 70f
6:30pm 7 13 mph 1019.6mb 70f
6:20pm 9 11 mph 1019.3mb 71f
6:10pm 9 13 mph 1019mb 71f
6:00pm 9 13 mph 1019mb 71f
5:50pm 10 14 mph 1019.3mb 71f
5:40pm 10 14 mph 1019.6mb 72f
5:36pm 10 14 mph 1020mb 72f
5:30pm 11 14 mph 1020mb 73f
5:20pm 8 9 mph 1019.6mb 73f
5:10pm 7 9 mph 1019.3mb 73f
5:00pm 6 8 mph 1019.3mb 75f
4:50pm 7 8 mph 1019.3mb 77f
4:40pm 6 8 mph 1019.3mb 77f
4:35pm 6 11 mph 1019.6mb 76f
4:30pm 7 11 mph 1019.3mb 75f
4:20pm 9 11 mph 1019.6mb 75f
4:10pm 8 10 mph 1019.6mb 75f
4:00pm 7 10 mph 1019.6mb 75f
3:50pm 8 10 mph 1019.3mb 75f
3:40pm 9 10 mph 1019mb 75f
3:35pm 8 10 mph 1019.6mb 74f
3:30pm 8 10 mph 1019.3mb 75f
3:20pm 5 8 mph 1019.3mb 75f
3:10pm 6 8 mph 1019mb 74f
3:00pm 3 7 mph 1018.6mb 73f
2:50pm 2 7 mph 1019.3mb 72f
2:40pm 3 7 mph 1018.6mb 72f
2:35pm  -  6 mph 1019.3mb 71f
2:30pm  -  6 mph 1019mb 71f
2:20pm 2 5 mph 1019.3mb 70f
2:10pm 2 5 mph 1018.3mb 70f
2:00pm  -  3 mph 1019mb 70f
1:50pm 1 5 mph 1018.6mb 70f
1:40pm  -  6 mph 1018.6mb 70f
1:34pm 3 6 mph 1019.3mb 70f
1:30pm 2 6 mph 1019.6mb 70f
1:20pm  -  6 mph 1019.3mb 70f
1:10pm 2 9 mph 1019.6mb 70f
1:00pm 6 16 mph 1020.3mb 70f
12:50pm 10 23 mph 1020mb 70f
12:40pm 16 23 mph 1020.7mb 71f
12:34pm 14
mph
1021.7mb 71f
12:30pm 13 26 mph 1021.3mb 71f
12:20pm 23 37 mph 1022.7mb 71f
12:10pm 29 37 mph 1022.4mb 73f
12:06pm 21 32 mph 1021.7mb 75f
12:00pm 14 15 mph 1020.7mb 76f
11:50am 11 15 mph 1019.6mb 77f
11:40am 13 15 mph 1019.6mb 76f
11:30am 11 14 mph 1019.6mb 76f
11:20am 10 13 mph 1020mb 76f
11:10am 11 13 mph 1020.3mb 77f
11:00am 8 9 mph 1020.3mb 77f
10:50am 8 9 mph 1020.3mb 79f
10:40am 6 10 mph 1020mb 78f
10:33am 6 9 mph 1019.3mb 78f
10:30am 6 8 mph 1019.3mb 78f
10:20am  -  5 mph 1019.6mb 77f
10:10am 2 5 mph 1020mb 76f
10:00am  -  2 mph 1019.3mb 73f
9:50am  -  mph 1020mb 72f
9:40am  -  3 mph 1020mb 72f
9:33am  -  8 mph 1019.6mb 71f
9:30am  -  mph 1019.6mb 71f
9:20am  -  mph 1020.3mb 71f
9:10am  -  3 mph 1019.6mb 71f
9:00am  -  6 mph 1020mb 71f
8:50am 2 8 mph 1019mb 71f
8:40am 3 8 mph 1020mb 71f
8:32am 5 8 mph 1019.3mb 70f
8:30am  -  3 mph 1019.6mb 70f
8:20am  -  2 mph 1020.3mb 70f
8:10am  -  mph 1020.3mb 70f
8:00am  -  2 mph 1020mb 70f
7:50am  -  3 mph 1020.7mb 70f
7:40am  -  2 mph 1019.3mb 72f
7:32am  -  9 mph 1019.6mb 72f
7:30am  -  3 mph 1019.3mb 72f
7:20am  -  6 mph 1019.6mb 73f
7:10am  -  6 mph 1018.6mb 73f
7:00am  -  3 mph 1019.6mb 73f
6:50am  -  6 mph 1018.6mb 73f
6:40am 3 9 mph 1019mb 74f
6:31am 7 10 mph 1018.3mb 74f
6:30am 7 10 mph 1018.6mb 74f
6:20am 6 9 mph 1018.6mb 74f
6:10am 6 9 mph 1019mb 73f
6:00am 7 9 mph 1018.3mb 73f
5:50am 7 9 mph 1019mb 73f
5:40am 3 9 mph 1017.9mb 73f
5:31am 3 7 mph 1018.3mb 73f
5:30am 3 7 mph 1018.6mb 73f
5:20am 2 5 mph 1017.9mb 72f
5:10am 2 6 mph 1018.3mb 72f
5:00am  -  3 mph 1017.6mb 71f
4:50am  -  3 mph 1018.3mb 71f
4:40am  -  5 mph 1017.9mb 71f
4:31am  -  5 mph 1017.9mb 71f
4:30am  -  5 mph 1017.9mb 71f
4:20am  -  5 mph 1017.6mb 71f
4:10am 1 5 mph 1017.6mb 71f
4:00am 1 5 mph 1017.6mb 71f
3:50am  -  5 mph 1017.6mb 71f
3:40am  -  5 mph 1017.9mb 71f
3:30am 1 6 mph 1017.6mb 71f
3:20am  -  5 mph 1017.9mb 71f
3:10am  -  3 mph 1017.6mb 71f
3:00am 1 6 mph 1018.3mb 71f
2:50am  -  3 mph 1017.3mb 71f
2:40am  -  3 mph 1017.9mb 71f
2:30am  -  3 mph 1017.3mb 71f
2:20am  -  3 mph 1017.9mb 71f
2:10am  -  3 mph 1016.9mb 71f
2:00am  -  2 mph 1017.9mb 71f
1:50am  -  3 mph 1017.3mb 71f
1:40am  -  3 mph 1017.9mb 71f
1:30am  -  3 mph 1017.3mb 71f
1:29am  -  7 mph 1017.3mb 71f
1:20am  -  2 mph 1017.9mb 71f
1:10am  -  5 mph 1017.6mb 71f
1:00am 2 7 mph 1017.6mb 71f
12:50am  -  3 mph 1017.9mb 71f
12:40am  -  3 mph 1017.3mb 71f
12:30am  -  2 mph 1017.9mb 71f
12:29am  -  6 mph 1017.6mb 71f
12:20am  -  2 mph 1017.3mb 71f
12:10am  -  3 mph 1017.9mb 71f
12:00am  -  3 mph 1017.3mb 71f
Mon 08/25 11:50pm 1 6 mph 1017.6mb 71f
11:40pm  -  3 mph 1017.6mb 71f
11:30pm  -  3 mph 1016.9mb 71f
11:29pm  -  6 mph 1017.3mb 71f
11:20pm  -  3 mph 1017.6mb 71f
11:10pm  -  3 mph 1016.9mb 71f
11:00pm  -  5 mph 1017.3mb 71f
10:50pm  -  6 mph 1017.6mb 72f
10:40pm  -  2 mph 1016.9mb 72f
10:30pm  -  2 mph 1017.6mb 72f
10:28pm  -  5 mph 1017.3mb 71f
10:20pm  -  2 mph 1017.3mb 71f
10:10pm  -  5 mph 1016.9mb 72f
10:00pm  -  2 mph 1017.6mb 72f
9:50pm  -  mph 1016.9mb 72f
9:40pm  -  mph 1016.9mb 72f
9:30pm  -  1 mph 1017.6mb 73f
9:28pm  -  10 mph 1016.6mb 72f
9:20pm  -  mph 1016.6mb 73f
9:10pm  -  1 mph 1017.3mb 73f
9:00pm  -  5 mph 1017.6mb 74f
8:50pm 3 5 mph 1017.9mb 73f
8:40pm  -  9 mph 1016.9mb 74f
8:30pm 8 10 mph 1017.9mb 74f
8:27pm 7 10 mph 1016.9mb 74f
8:20pm 6 9 mph 1017.3mb 74f
8:10pm 8 10 mph 1016.6mb 74f
8:00pm  -  5 mph 1015.9mb 73f
7:50pm 3 8 mph 1015.9mb 73f
7:40pm  -  3 mph 1015.6mb 73f
7:30pm  -  5 mph 1015.2mb 74f
7:27pm 2 11 mph 1015.9mb 74f
7:20pm  -  10 mph 1016.3mb 74f
7:10pm 6 11 mph 1016.9mb 74f
7:00pm 5 8 mph 1016.6mb 74f
6:50pm 6 11 mph 1016.3mb 74f
6:40pm 6 10 mph 1016.6mb 74f
6:30pm 8 9 mph 1016.9mb 74f
6:26pm 6 9 mph 1016.9mb 74f
6:20pm 7 9 mph 1016.9mb 74f
6:10pm 3 5 mph 1016.6mb 74f
6:00pm 2 3 mph 1016.6mb 74f
5:50pm  -  6 mph 1016.6mb 74f
5:40pm  -  5 mph 1017.3mb 75f
5:30pm  -  6 mph 1017.6mb 75f
5:26pm 2 7 mph 1017.6mb 75f
5:20pm 1 7 mph 1017.6mb 75f
5:10pm 2 7 mph 1016.9mb 75f
5:00pm 2 7 mph 1016.9mb 75f
4:50pm 2 6 mph 1017.6mb 75f
4:40pm 1 7 mph 1017.9mb 75f
4:30pm 1 6 mph 1017.9mb 75f
4:26pm 2 10 mph 1017.6mb 75f
4:20pm 2 8 mph 1017.6mb 75f
4:10pm 2 9 mph 1017.3mb 75f
4:00pm 6 10 mph 1017.3mb 76f
3:50pm 5 7 mph 1016.6mb 76f
3:40pm 2 3 mph 1016.3mb 76f
3:30pm  -  mph 1016.6mb 76f
3:25pm  -  14 mph 1017.3mb 77f
3:20pm 2 6 mph 1016.9mb 77f
3:10pm  -  1 mph 1016.9mb 76f
3:00pm  -  14 mph 1017.6mb 75f
2:50pm 8 11 mph 1017.6mb 76f
2:40pm 7 16 mph 1016.9mb 76f
2:30pm 14 18 mph 1017.3mb 77f
2:25pm 9
mph
1016.3mb 79f
2:20pm  -  11 mph 1017.3mb 80f
2:10pm 3 9 mph 1017.6mb 78f
2:00pm 6 23 mph 1017.6mb 78f
1:50pm 21 30 mph 1019.3mb 77f
1:44pm 20 29 mph 1019mb 82f
1:40pm 11 13 mph 1018.6mb 82f
1:30pm 9 10 mph 1018.6mb 84f
1:24pm 8 10 mph 1018.6mb 84f
1:20pm 8 10 mph 1018.6mb 84f
1:10pm 9 10 mph 1017.6mb 86f
1:00pm 2 5 mph 1017.9mb 87f
12:50pm  -  3 mph 1017.9mb 88f
12:40pm 3 7 mph 1017.6mb 85f
12:30pm 3 7 mph 1017.3mb 82f
12:24pm 6 10 mph 1017.9mb 82f
12:20pm 5 7 mph 1017.9mb 82f
12:10pm 3 6 mph 1017.9mb 81f
12:00pm 5 8 mph 1017.9mb 81f
11:50am 8 9 mph 1017.9mb 81f
11:40am 8 10 mph 1017.6mb 81f
11:30am 6 9 mph 1017.9mb 80f
11:24am 7 13 mph 1018.3mb 80f
11:20am 7 10 mph 1018.3mb 80f
11:10am 9 11 mph 1018.6mb 80f
11:00am 10 13 mph 1018.6mb 81f
10:50am 9 13 mph 1018.6mb 82f
10:40am 9 11 mph 1018.3mb 81f
10:30am 8 10 mph 1018.3mb 81f
10:23am 8 11 mph 1018.6mb 81f
10:20am 7 11 mph 1018.6mb 81f
10:10am 8 11 mph 1018.6mb 81f
10:00am 6 10 mph 1018.6mb 82f
9:50am 2 8 mph 1018.6mb 82f
9:40am 2 7 mph 1019mb 82f
9:30am 2 6 mph 1019mb 81f
9:23am 2 8 mph 1018.6mb 80f
9:20am 5 7 mph 1019mb 80f
9:10am 2 7 mph 1018.3mb 79f
9:00am 2 7 mph 1017.9mb 78f
8:50am 2 8 mph 1018.3mb 78f
8:40am 2 7 mph 1018.6mb 77f
8:30am 2 7 mph 1017.6mb 76f
8:22am 2 9 mph 1018.3mb 76f
8:20am 2 7 mph 1017.6mb 76f
8:10am 2 7 mph 1018.3mb 75f
8:00am 2 7 mph 1017.9mb 74f
7:50am  -  6 mph 1017.6mb 74f
7:40am 2 8 mph 1018.3mb 74f
7:30am 2 9 mph 1017.6mb 73f
7:22am 2 8 mph 1018.3mb 73f
7:20am 2 8 mph 1017.9mb 73f
7:10am  -  7 mph 1018.3mb 73f
7:00am 1 5 mph 1017.3mb 73f
6:50am 1 5 mph 1017.9mb 72f
6:40am  -  6 mph 1017.6mb 72f
6:30am  -  5 mph 1017.3mb 72f
6:22am 2 6 mph 1017.3mb 72f
6:20am 1 6 mph 1017.9mb 72f
6:10am  -  6 mph 1016.9mb 72f
6:00am  -  5 mph 1017.3mb 72f
5:50am  -  5 mph 1017.6mb 72f
5:40am 1 6 mph 1016.6mb 72f
5:30am  -  5 mph 1017.6mb 72f
5:21am 2 7 mph 1016.9mb 73f
5:20am 2 5 mph 1017.3mb 73f
5:10am 2 7 mph 1016.6mb 73f
5:00am 1 5 mph 1017.6mb 73f
4:50am 2 7 mph 1017.3mb 73f
4:40am 1 5 mph 1016.6mb 73f
4:30am 2 8 mph 1017.6mb 73f
4:21am 2 8 mph 1017.3mb 73f
4:20am 2 7 mph 1017.3mb 73f
4:10am 1 6 mph 1016.6mb 73f
4:00am 2 7 mph 1017.3mb 73f
3:50am 2 8 mph 1016.9mb 73f
3:40am 1 7 mph 1016.6mb 73f
3:30am 2 7 mph 1017.3mb 73f
3:20am 1 6 mph 1016.9mb 73f
3:10am 1 6 mph 1016.6mb 73f
3:00am 2 5 mph 1016.9mb 73f
2:50am  -  5 mph 1017.3mb 73f
2:40am  -  6 mph 1016.6mb 73f
2:30am 1 6 mph 1016.6mb 74f
2:20am  -  6 mph 1016.6mb 74f
2:10am  -  6 mph 1016.9mb 74f
2:00am 1 5 mph 1016.6mb 74f
1:50am  -  6 mph 1016.6mb 74f
1:40am  -  6 mph 1017.3mb 74f
1:30am  -  5 mph 1017.3mb 75f
1:20am  -  3 mph 1016.9mb 75f
1:10am  -  5 mph 1016.9mb 75f
1:00am  -  5 mph 1017.6mb 75f
12:50am 1 5 mph 1017.6mb 75f
12:40am  -  5 mph 1017.6mb 75f
12:30am  -  5 mph 1017.3mb 75f
12:20am  -  3 mph 1017.3mb 76f
12:19am 1 5 mph 1017.6mb 76f
12:10am  -  5 mph 1017.6mb 76f
12:00am  -  3 mph 1017.9mb 76f
Sun 08/24 11:50pm  -  5 mph 1017.6mb 76f
11:40pm  -  5 mph 1017.3mb 76f
11:30pm  -  5 mph 1017.3mb 76f
11:20pm  -  5 mph 1017.3mb 76f
11:19pm  -  5 mph 1017.9mb 76f
11:10pm  -  3 mph 1017.6mb 76f
11:00pm  -  5 mph 1017.6mb 76f
10:50pm  -  3 mph 1017.9mb 76f
10:40pm  -  3 mph 1017.6mb 77f
10:30pm  -  3 mph 1017.3mb 77f
10:20pm  -  2 mph 1016.9mb 77f
10:18pm  -  5 mph 1017.3mb 77f
10:10pm  -  3 mph 1016.9mb 77f
10:00pm  -  3 mph 1016.9mb 78f
9:50pm  -  2 mph 1016.6mb 78f
9:40pm  -  5 mph 1016.9mb 78f
9:30pm  -  3 mph 1016.9mb 79f
9:20pm  -  2 mph 1017.3mb 79f
9:18pm  -  6 mph 1016.9mb 79f
9:10pm  -  2 mph 1017.3mb 79f
9:00pm  -  3 mph 1017.3mb 80f
8:50pm  -  6 mph 1016.6mb 80f
8:40pm  -  3 mph 1016.3mb 80f
8:30pm  -  3 mph 1016.3mb 80f
8:20pm  -  2 mph 1016.6mb 80f
8:18pm  -  3 mph 1016.6mb 80f
8:10pm  -  1 mph 1016.9mb 80f
8:00pm  -  3 mph 1016.6mb 80f
7:50pm  -  2 mph 1016.6mb 80f
7:40pm  -  2 mph 1015.9mb 81f
7:30pm  -  2 mph 1016.3mb 81f
7:20pm  -  2 mph 1016.6mb 82f
7:17pm  -  3 mph 1015.9mb 83f
7:10pm  -  3 mph 1015.9mb 83f
7:00pm  -  3 mph 1016.6mb 83f
6:50pm  -  2 mph 1016.3mb 84f
6:40pm  -  3 mph 1016.3mb 85f
6:30pm  -  2 mph 1016.3mb 86f
6:20pm  -  5 mph 1016.3mb 86f
6:17pm  -  5 mph 1016.3mb 86f
6:10pm  -  3 mph 1015.9mb 87f
6:00pm  -  3 mph 1016.6mb 86f
5:50pm  -  3 mph 1015.9mb 86f
5:40pm  -  5 mph 1016.6mb 87f
5:30pm  -  2 mph 1015.9mb 87f
5:20pm 2 5 mph 1016.6mb 87f
5:16pm  -  7 mph 1016.6mb 86f
5:10pm  -  6 mph 1015.9mb 85f
5:00pm  -  6 mph 1016.6mb 87f
4:50pm  -  3 mph 1015.9mb 88f
4:40pm  -  7 mph 1016.6mb 87f
4:30pm 2 7 mph 1015.6mb 88f
4:20pm  -  7 mph 1016.6mb 87f
4:16pm 1 9 mph 1016.6mb 87f
4:10pm 1 5 mph 1015.9mb 86f
4:00pm  -  6 mph 1016.6mb 86f
3:50pm  -  7 mph 1016.3mb 86f
3:40pm 1 9 mph 1016.6mb 87f
3:30pm 1 9 mph 1016.6mb 87f
3:20pm 5 11 mph 1016.6mb 86f
3:16pm 6 11 mph 1016.3mb 86f
3:10pm 2 9 mph 1016.6mb 86f
3:00pm 1 6 mph 1016.3mb 87f
2:50pm  -  6 mph 1016.9mb 86f
2:40pm 1 5 mph 1016.6mb 86f
2:30pm 1 6 mph 1016.9mb 85f
2:20pm 2 8 mph 1017.3mb 86f
2:15pm 2 7 mph 1016.9mb 86f
2:10pm 1 6 mph 1016.3mb 85f
2:00pm  -  5 mph 1017.3mb 85f
1:50pm 1 6 mph 1017.3mb 85f
1:40pm  -  6 mph 1016.9mb 84f
1:30pm  -  6 mph 1017.6mb 85f
1:20pm 2 8 mph 1017.6mb 84f
1:15pm 2 8 mph 1017.6mb 84f
1:10pm 2 8 mph 1017.3mb 84f
1:00pm 1 5 mph 1017.3mb 84f
12:50pm 2 5 mph 1017.6mb 83f
12:40pm 3 7 mph 1017.9mb 82f
12:30pm 1 6 mph 1017.9mb 83f
12:20pm  -  8 mph 1017.6mb 82f
12:14pm 1 7 mph 1017.9mb 82f
12:10pm 1 6 mph 1017.3mb 82f